Weather History for Ashland, WI

Change the Weather History Date:

Tuesday, April 1, 2014

  Actual Average Record
Temperature  
Mean Temperature 26 °F -  
Max Temperature 36 °F 43 °F 76 °F (1986)
Min Temperature 18 °F 23 °F 0 °F (1975)
Degree Days  
Heating Degree Days 38    
Moisture  
Dew Point 20 °F    
Average Humidity 82    
Maximum Humidity 96    
Minimum Humidity 69    
Precipitation  
Precipitation 0.03 in - - ()
Sea Level Pressure  
Sea Level Pressure 29.69 in    
Wind  
Wind Speed 12 mph (West)    
Max Wind Speed 21 mph    
Max Gust Speed 32 mph    
Visibility 6 miles    
Events Fog , Snow    
Averages and records for this station are not official NWS values.
T = Trace of Precipitation, MM = Missing Value Source: NWS Daily Summary

Daily Weather History Graph

Daily Weather History Graph

Search for Another Location

Airport:

Trip Planner

Search our weather history database for the weather conditions in past years. The results will help you decide how hot, cold, wet, or windy it might be!

Date:

Astronomy

Apr. 01, 2014 Rise Set
Actual Time 6:43 AM CDT 7:32 PM CDT
Civil Twilight 6:12 AM CDT 8:03 PM CDT
Nautical Twilight 5:36 AM CDT 8:39 PM CDT
Astronomical Twilight 4:58 AM CDT 9:18 PM CDT
Moon 7:39 AM CDT (4/1) 10:04 PM CDT (4/1)
Length of Visible Light 13h 50m
Length of Day
12h 49m
Waxing Crescent, 5% of the Moon is Illuminated
Apr 1
Waxing Crescent
Apr 7
First Quarter
Apr 15
Full
Apr 22
Last Quarter
Apr 29
New

Hourly Weather History & Observations

Time (CDT) Temp. Windchill Dew Point Humidity Pressure Visibility Wind Dir Wind Speed Gust Speed Precip Events Conditions
12:53 AM 33.1 °F 25.5 °F 32.0 °F 96% 29.44 in 8.0 mi NNE 9.2 mph - N/A   Mostly Cloudy
1:53 AM 33.1 °F 25.5 °F 32.0 °F 96% 29.42 in 8.0 mi NE 9.2 mph - N/A   Overcast
2:53 AM 33.1 °F 26.9 °F 32.0 °F 96% 29.44 in 8.0 mi WSW 6.9 mph - N/A   Overcast
3:03 AM 33.1 °F 25.5 °F 32.0 °F 96% 29.42 in 9.0 mi West 9.2 mph - N/A   Overcast
3:10 AM 33.1 °F 26.9 °F 32.0 °F 96% 29.42 in 9.0 mi WNW 6.9 mph - N/A   Overcast
3:53 AM 33.1 °F 30.0 °F 32.0 °F 96% 29.45 in 7.0 mi Variable 3.5 mph - N/A   Overcast
4:53 AM 35.1 °F 26.4 °F 32.0 °F 89% 29.46 in 8.0 mi SW 12.7 mph 21.9 mph N/A   Overcast
5:12 AM 34.0 °F 27.2 °F 32.0 °F 92% 29.44 in 6.0 mi WSW 8.1 mph - N/A   Overcast
5:53 AM 32.0 °F 23.6 °F 30.0 °F 92% 29.49 in 5.0 mi SW 10.4 mph 19.6 mph 0.00 in Snow Light Snow
6:23 AM 32.0 °F 23.0 °F 28.0 °F 85% 29.47 in 6.0 mi SW 11.5 mph - 0.00 in Snow Light Snow
6:40 AM 30.9 °F 19.4 °F 28.0 °F 89% 29.47 in 5.0 mi SW 17.3 mph 23.0 mph 0.01 in Snow Light Snow
6:53 AM 30.9 °F 20.7 °F 28.0 °F 89% 29.51 in 7.0 mi SW 13.8 mph 20.7 mph 0.01 in Snow Light Snow
7:31 AM 30.9 °F 21.7 °F 28.0 °F 89% 29.49 in 8.0 mi SSW 11.5 mph - 0.00 in   Overcast
7:39 AM 28.9 °F 16.1 °F 27.0 °F 92% 29.51 in 1.8 mi West 19.6 mph 26.5 mph 0.00 in Snow Light Snow
7:49 AM 26.6 °F 13.8 °F 21.2 °F 80% 29.52 in 1.8 mi West 17.3 mph 32.2 mph 0.00 in Snow Light Snow
7:51 AM 26.6 °F 14.3 °F 21.2 °F 80% 29.52 in 3.0 mi West 16.1 mph 32.2 mph 0.00 in Snow Light Snow
7:53 AM 26.1 °F 12.7 °F 21.9 °F 84% 29.56 in 7.0 mi West 18.4 mph 32.2 mph 0.00 in   Overcast
7:58 AM 25.0 °F 11.7 °F 21.0 °F 85% 29.53 in 10.0 mi West 17.3 mph 27.6 mph N/A   Overcast
8:13 AM 23.0 °F 9.2 °F 19.9 °F 88% 29.54 in 1.5 mi West 17.3 mph 23.0 mph 0.00 in Snow Light Snow
8:32 AM 21.9 °F 6.9 °F 18.0 °F 85% 29.56 in 0.8 mi WNW 19.6 mph 28.8 mph 0.01 in Snow Light Snow
8:41 AM 21.9 °F 7.3 °F 18.0 °F 85% 29.56 in 0.8 mi WNW 18.4 mph 27.6 mph 0.01 in Snow Light Snow
8:51 AM 21.2 °F 8.3 °F 17.6 °F 86% 29.57 in 1.0 mi WNW 13.8 mph - 0.02 in Snow Light Snow
8:53 AM 21.9 °F 11.0 °F 18.0 °F 85% 29.60 in 1.2 mi West 10.4 mph - 0.02 in Snow Light Snow
9:03 AM 21.9 °F 9.8 °F 18.0 °F 85% 29.57 in 2.5 mi WNW 12.7 mph 19.6 mph 0.00 in Snow Light Snow
9:10 AM 21.9 °F 9.2 °F 17.1 °F 82% 29.58 in 5.0 mi WNW 13.8 mph - 0.00 in Snow Light Snow
9:53 AM 19.9 °F 6.7 °F 14.0 °F 78% 29.66 in 10.0 mi West 13.8 mph 20.7 mph 0.00 in   Overcast
10:45 AM 19.0 °F 4.0 °F 14.0 °F 81% 29.66 in 1.5 mi West 17.3 mph 23.0 mph 0.00 in Snow Light Snow
10:53 AM 18.0 °F 4.8 °F 15.1 °F 88% 29.71 in 0.5 mi West 12.7 mph 23.0 mph 0.00 in Fog , Snow Light Snow
11:06 AM 19.0 °F 4.0 °F 14.0 °F 81% 29.68 in 1.8 mi West 17.3 mph 26.5 mph 0.00 in Snow Light Snow
11:12 AM 19.0 °F 4.0 °F 12.9 °F 77% 29.68 in 3.0 mi West 17.3 mph 25.3 mph 0.00 in Snow Light Snow
11:53 AM 19.0 °F 5.0 °F 10.9 °F 71% 29.75 in 8.0 mi WNW 15.0 mph 23.0 mph 0.00 in Snow Light Snow
12:53 PM 19.0 °F 3.2 °F 10.9 °F 71% 29.79 in 5.0 mi West 19.6 mph 27.6 mph 0.00 in Snow Light Snow
1:01 PM 19.0 °F 3.2 °F 12.0 °F 74% 29.76 in 5.0 mi WNW 19.6 mph 28.8 mph 0.00 in Snow Light Snow
1:18 PM 19.0 °F 3.2 °F 12.9 °F 77% 29.77 in 1.8 mi West 19.6 mph 27.6 mph 0.00 in Snow Light Snow
1:38 PM 19.0 °F 4.0 °F 12.0 °F 74% 29.79 in 3.0 mi West 17.3 mph 24.2 mph 0.00 in Snow Light Snow
1:53 PM 19.0 °F 2.7 °F 10.9 °F 71% 29.84 in 6.0 mi West 20.7 mph 28.8 mph 0.00 in Snow Light Snow
2:22 PM 19.0 °F 5.6 °F 12.9 °F 77% 29.82 in 2.0 mi WNW 13.8 mph 26.5 mph 0.00 in Snow Light Snow
2:30 PM 19.9 °F 4.8 °F 14.0 °F 78% 29.83 in 1.5 mi WNW 18.4 mph 24.2 mph 0.00 in Snow Light Snow
2:53 PM 21.0 °F 9.3 °F 15.1 °F 78% 29.88 in 1.8 mi West 11.5 mph - 0.00 in Snow Light Snow
2:56 PM 21.9 °F 9.2 °F 15.1 °F 75% 29.84 in 3.0 mi West 13.8 mph 20.7 mph 0.00 in Snow Light Snow
3:53 PM 24.1 °F 11.0 °F 15.1 °F 69% 29.90 in 10.0 mi West 16.1 mph 26.5 mph 0.00 in   Overcast
4:53 PM 25.0 °F 13.1 °F 16.0 °F 69% 29.92 in 10.0 mi WNW 13.8 mph 20.7 mph N/A   Overcast
5:53 PM 25.0 °F 11.7 °F 16.0 °F 69% 29.96 in 10.0 mi West 17.3 mph 27.6 mph N/A   Overcast
6:53 PM 25.0 °F 14.2 °F 17.1 °F 72% 30.00 in 10.0 mi West 11.5 mph 20.7 mph N/A   Overcast
7:53 PM 25.0 °F 14.8 °F 17.1 °F 72% 30.04 in 10.0 mi West 10.4 mph - N/A   Overcast
8:10 PM 25.0 °F 16.3 °F 17.1 °F 72% 30.01 in 10.0 mi West 8.1 mph - N/A   Overcast
8:53 PM 26.1 °F 20.5 °F 17.1 °F 69% 30.08 in 10.0 mi WNW 4.6 mph - N/A   Overcast
9:53 PM 26.1 °F 21.9 °F 18.0 °F 71% 30.10 in 10.0 mi NW 3.5 mph - N/A   Overcast
10:53 PM 25.0 °F 15.5 °F 17.1 °F 72% 30.13 in 10.0 mi NNW 9.2 mph - N/A   Overcast
11:53 PM 21.9 °F 15.7 °F 14.0 °F 72% 30.15 in 10.0 mi NW 4.6 mph - N/A   Clear